EW8041 Weather Reports


time (UTC)temp
F
wind
direction
speed
knots
gust
knots
rain 1hr
in
rain 24hr
in
rain mn
in
humidity
%
barometer
mb
20260505213519 75 224 1.7 3.5 0.00 0.00 0.00 60 1011.3
20260505212535 75 187 1.7 5.2 0.00 0.00 0.00 60 1011.2
20260505211531 75 139 3.5 9.6 0.00 0.00 0.00 60 1011.3
20260505210527 74 198 3.5 9.6 0.00 0.00 0.00 60 1011.2
20260505205523 74 161 3.5 7.8 0.00 0.00 0.00 60 1010.9
20260505204519 74 165 2.6 7.0 0.00 0.00 0.00 60 1011.0
20260505203535 74 168 1.7 3.5 0.00 0.00 0.00 59 1011.0
20260505202551 74 147 1.7 6.1 0.00 0.00 0.00 59 1011.1
20260505201527 74 116 1.7 5.2 0.00 0.00 0.00 58 1011.2
20260505200523 74 98 0.9 6.1 0.00 0.00 0.00 58 1011.5
20260505195519 74 155 1.7 5.2 0.00 0.00 0.00 57 1011.4
20260505194715 74 191 2.6 7.0 0.00 0.00 0.00 57 1011.2
20260505193551 75 170 1.7 6.1 0.00 0.00 0.00 55 1011.6
20260505192607 76 147 1.7 5.2 0.00 0.00 0.00 53 1011.9
20260505191522 77 201 1.7 7.0 0.00 0.00 0.00 54 1012.6
20260505190518 77 173 2.6 7.0 0.00 0.00 0.00 53 1013.1
20260505185534 78 177 2.6 11.3 0.00 0.00 0.00 53 1013.1
20260505184530 79 156 3.5 7.8 0.00 0.00 0.00 54 1013.1
20260505183526 79 187 2.6 7.8 0.00 0.00 0.00 54 1013.2
20260505182521 79 169 2.6 8.7 0.00 0.00 0.00 55 1013.2
20260505181517 79 199 2.6 7.8 0.00 0.00 0.00 55 1013.2
20260505180533 79 170 4.3 9.6 0.00 0.00 0.00 55 1013.2
20260505175529 78 170 3.5 8.7 0.00 0.00 0.00 55 1013.1
20260505174525 78 160 2.6 6.1 0.00 0.00 0.00 57 1013.3
20260505173521 77 127 1.7 6.1 0.00 0.00 0.00 55 1013.5
20260505172517 78 174 4.3 9.6 0.00 0.00 0.00 55 1013.6
20260505171533 78 121 3.5 7.8 0.00 0.00 0.00 57 1013.8
20260505170529 77 184 2.6 6.1 0.00 0.00 0.00 57 1013.9
20260505165605 78 168 2.6 9.6 0.00 0.00 0.00 58 1014.0
20260505164521 78 216 3.5 12.2 0.00 0.00 0.00 59 1013.8
20260505163537 77 174 3.5 9.6 0.00 0.00 0.00 60 1014.0
20260505162553 77 186 4.3 8.7 0.00 0.00 0.00 60 1013.9
20260505161529 77 183 3.5 9.6 0.00 0.00 0.00 61 1013.9
20260505160524 77 168 3.5 7.8 0.00 0.00 0.00 65 1013.8
20260505152529 75 180 1.7 5.2 0.00 0.00 0.00 67 1013.9
20260505151524 75 173 1.7 5.2 0.00 0.00 0.00 69 1013.9
20260505150539 75 175 2.6 6.1 0.00 0.00 0.00 72 1014.1
20260505140535 69 182 0.9 3.5 0.00 0.00 0.00 77 1014.1
20260505124522 60 144 0.9 2.6 0.00 0.00 0.00 84 1013.9
20260505123518 58 153 0.9 2.6 0.00 0.00 0.00 84 1013.8
20260505122534 56 89 0.9 1.7 0.00 0.00 0.00 83 1013.8
20260505121529 56 151 0.9 1.7 0.00 0.00 0.00 83 1013.8
20260505120525 55 181 0.0 0.9 0.00 0.00 0.00 82 1014.0
20260505115521 55 180 0.0 0.9 0.00 0.00 0.00 82 1013.5
20260505114517 54 181 0.0 0.9 0.00 0.00 0.00 81 1013.3
20260505113533 55 180 0.0 0.9 0.00 0.00 0.00 80 1012.9
20260505112529 55 180 0.0 0.9 0.00 0.00 0.00 80 1012.9
20260505111525 55 179 0.0 0.9 0.00 0.00 0.00 79 1012.9
20260505110521 55 0.0 0.0 0.00 0.00 0.00 78 1012.7
20260505101520 56 179 0.0 0.9 0.00 0.00 0.00 77 1012.0
20260505100516 57 179 0.0 0.9 0.00 0.00 0.00 77 1012.1
20260505095532 57 179 0.0 0.9 0.00 0.00 0.00 77 1012.0
20260505094528 57 179 0.0 0.9 0.00 0.00 0.00 76 1011.9
20260505093524 57 179 0.0 0.9 0.00 0.00 0.00 76 1011.8
20260505092520 56 178 0.0 3.5 0.00 0.00 0.00 76 1011.9
20260505091516 56 186 0.0 1.7 0.00 0.00 0.00 76 1012.0
20260505090531 57 183 0.0 1.7 0.00 0.00 0.00 76 1011.9
20260505085527 57 174 0.0 0.9 0.00 0.00 0.00 76 1011.9
20260505084523 56 173 0.0 1.7 0.00 0.00 0.00 76 1012.1
20260505083519 56 194 0.0 2.6 0.00 0.00 0.00 76 1011.9
20260505082555 55 175 0.9 1.7 0.00 0.00 0.00 76 1012.0
20260505081531 55 140 0.0 0.9 0.00 0.00 0.00 76 1012.1
20260505080527 55 137 0.0 0.9 0.00 0.00 0.00 75 1012.3
20260505075524 55 137 0.0 0.9 0.00 0.00 0.00 75 1012.5
20260505074519 55 137 0.0 1.7 0.00 0.00 0.00 75 1012.5
20260505073535 55 0.0 0.0 0.00 0.00 0.00 74 1012.7
20260505072551 55 0.0 0.0 0.00 0.00 0.00 74 1012.6
20260505071527 56 137 0.0 0.9 0.00 0.00 0.00 74 1012.5
20260505070523 56 0.0 0.0 0.00 0.00 0.00 73 1012.5
20260505065519 56 0.0 0.0 0.00 0.00 0.00 73 1012.6
20260505064535 56 0.0 0.0 0.00 0.00 0.00 72 1012.6
20260505063531 57 0.0 0.0 0.00 0.00 0.00 72 1012.7
20260505062546 57 137 0.0 0.9 0.00 0.00 0.00 72 1012.7
20260505061522 57 0.0 0.0 0.00 0.00 0.00 71 1012.8
20260505060518 58 0.0 0.0 0.00 0.00 0.00 71 1012.8
20260505055534 58 0.0 0.0 0.00 0.00 0.00 71 1012.9
20260505054550 58 137 0.0 0.9 0.00 0.00 0.00 70 1012.9
20260505053526 58 0.0 0.0 0.00 0.00 0.00 70 1012.9
20260505052522 58 137 0.0 0.9 0.00 0.00 0.00 70 1012.8
20260505051518 59 137 0.0 0.9 0.00 0.00 0.00 69 1012.9
20260505050554 59 0.0 0.0 0.00 0.00 0.00 69 1013.0
20260505041533 60 137 0.0 0.9 0.00 0.00 0.00 67 1012.9
20260505040549 60 0.0 0.0 0.00 0.00 0.00 66 1012.9
20260505035525 60 0.0 0.0 0.00 0.00 0.00 66 1012.8
20260505034521 61 137 0.0 0.9 0.00 0.00 0.00 65 1012.9
20260505033536 61 137 0.0 0.9 0.00 0.00 0.00 64 1013.0
20260505032535 61 137 0.0 0.9 0.00 0.00 0.00 64 1012.9
20260505031528 62 0.0 0.0 0.00 0.00 0.00 63 1013.1
20260505030524 62 137 0.0 0.9 0.00 0.00 0.00 62 1012.9
20260505025520 63 137 0.0 0.9 0.00 0.00 0.00 62 1012.9
20260505024535 63 138 0.0 0.9 0.00 0.00 0.00 61 1012.9
20260505023531 63 155 0.0 0.9 0.00 0.00 0.00 60 1012.8
20260505022527 63 155 0.0 0.9 0.00 0.00 0.00 59 1012.6
20260505021543 64 139 0.0 1.7 0.00 0.00 0.00 58 1012.8
20260505020519 64 172 0.0 0.9 0.00 0.00 0.00 58 1012.6
20260505015535 65 0.0 0.0 0.00 0.00 0.00 57 1012.5
20260505014530 66 172 0.0 0.9 0.00 0.00 0.00 56 1012.4
20260505013526 66 173 0.0 0.9 0.00 0.00 0.00 55 1012.5
20260505012522 67 173 0.0 0.9 0.00 0.00 0.00 54 1012.4
20260505011537 68 173 0.9 0.9 0.00 0.00 0.00 54 1012.4
20260505010532 69 173 0.9 1.7 0.00 0.00 0.00 53 1012.4
20260505005528 70 171 0.0 2.6 0.00 0.00 0.00 53 1012.3
20260505004524 71 169 0.0 0.9 0.00 0.00 0.00 52 1012.2
20260505003519 72 158 1.7 3.5 0.00 0.00 0.00 51 1012.1
20260505002555 73 164 0.9 3.5 0.00 0.00 0.00 51 1012.1
20260505001531 74 166 1.7 3.5 0.00 0.00 0.00 51 1012.0
20260505000526 75 170 2.6 5.2 0.00 0.00 0.00 50 1012.0
20260504235522 75 163 1.7 7.0 0.00 0.00 0.00 50 1012.0
20260504234518 75 162 3.5 9.6 0.00 0.00 0.00 50 1012.0
20260504233534 76 174 2.6 7.0 0.00 0.00 0.00 51 1011.9
20260504232529 76 165 2.6 7.0 0.00 0.00 0.00 51 1012.1
20260504231524 77 202 1.7 6.1 0.00 0.00 0.00 51 1012.0
20260504230520 77 161 2.6 5.2 0.00 0.00 0.00 50 1012.0
20260504225556 77 158 2.6 6.1 0.00 0.00 0.00 50 1011.9
20260504224532 77 178 3.5 8.7 0.00 0.00 0.00 49 1012.2
20260504223527 78 177 2.6 7.0 0.00 0.00 0.00 49 1012.2
20260504222543 78 223 2.6 7.0 0.00 0.00 0.00 49 1012.2
20260504221519 78 239 3.5 11.3 0.00 0.00 0.00 50 1012.3
20260504220534 78 180 2.6 6.1 0.00 0.00 0.00 51 1012.3
20260504215550 78 185 2.6 8.7 0.00 0.00 0.00 49 1012.4
20260504214545 79 183 2.6 6.1 0.00 0.00 0.00 48 1012.4